DateTimeUTC,F1_A11,F1_S11,BsB_S11,BsG_S11,BsR_S11,BbsB_S11,BbsG_S11,BbsR_S11,BaB_A11,BaG_A11,BaR_A11,Tu_S11,T_S11,Uu_S11,U_S11,P_S11,T1_A11
2021-05-24T09:00:00Z,00000200,21000000,,,,,,,0000.37,0000.80,0000.12,15.4,22.8,,00.0,0668.5,30.8
2021-05-24T09:01:00Z,00000200,21000000,,,,,,,0000.58,0000.43,0000.64,15.4,22.8,,00.0,0668.5,30.8
2021-05-24T09:02:00Z,00000200,21000000,,,,,,,0000.14,0000.02,0000.02,15.4,22.8,,00.0,0668.5,30.8
2021-05-24T09:03:00Z,00000200,61000000,,,,,,,0000.64,0000.48,0000.39,15.4,22.9,,00.0,0668.5,30.8
2021-05-24T09:04:00Z,00000200,41000000,0001.32,0001.02,0000.60,0000.24,0000.10,0000.28,0000.69,0001.01,0000.78,15.6,22.6,00.0,00.0,0669.4,30.8
2021-05-24T09:05:00Z,00000200,01000000,0001.63,0000.60,0000.14,0000.02,0000.25,-000.01,0000.93,0000.70,0000.66,15.7,22.6,00.0,00.0,0669.5,30.8
2021-05-24T09:06:00Z,00000200,01000000,0001.41,0000.66,0000.32,-000.04,0000.00,0000.11,-000.14,0000.08,-000.12,15.8,22.6,00.0,00.0,0669.4,30.8
2021-05-24T09:07:00Z,00000200,01000000,0001.35,0000.71,0000.08,-000.16,0000.14,0000.05,0000.73,0000.39,0000.32,15.8,22.6,00.0,00.0,0669.5,30.8
2021-05-24T09:08:00Z,00000200,01000000,0001.12,0000.53,0000.26,0000.28,0000.46,0000.05,0000.53,0000.47,0000.81,15.8,22.6,00.0,00.0,0669.5,30.8
2021-05-24T09:09:00Z,00000200,01000000,0001.76,0000.99,0000.31,-000.24,0000.21,-000.03,0000.53,0000.34,-000.08,15.8,22.6,00.1,00.0,0669.5,30.8
2021-05-24T09:10:00Z,00000200,01000000,0001.41,0000.58,0000.09,0000.19,0000.30,-000.07,0000.50,0001.12,0000.52,15.8,22.6,00.0,00.0,0669.5,30.8
2021-05-24T09:11:00Z,00000200,01000000,0001.18,0000.57,0000.35,-000.09,0000.23,-000.01,0000.13,-000.22,0000.02,15.8,22.6,00.0,00.0,0669.5,30.8
2021-05-24T09:12:00Z,00000200,01000000,0001.14,0000.93,0000.33,0000.18,0000.12,0000.20,0000.59,0000.48,0000.29,15.8,22.6,00.1,00.0,0669.5,30.8
2021-05-24T09:13:00Z,00000200,01000000,0001.53,0000.92,0000.02,-000.20,0000.26,0000.15,0000.43,0000.27,0000.28,15.8,22.6,00.1,00.0,0669.5,30.8
2021-05-24T09:14:00Z,00000200,01000000,0001.58,0000.50,0000.32,0000.46,0000.29,-000.02,0000.47,0000.37,0000.56,15.8,22.5,00.0,00.0,0669.5,30.8
2021-05-24T09:15:00Z,00000200,01000000,0001.70,0000.92,0000.36,0000.31,0000.14,0000.10,0000.73,0000.72,0000.42,15.8,22.5,00.1,00.1,0669.5,30.8
2021-05-24T09:16:00Z,00000200,01000000,0000.97,0000.64,0000.12,-000.32,0000.37,0000.22,0000.36,0000.52,0000.68,15.8,22.5,00.1,00.0,0669.5,30.8
2021-05-24T09:17:00Z,00000200,01000000,0001.03,0001.10,0000.36,-000.09,0000.17,0000.02,0000.72,0000.69,0000.28,15.8,22.5,00.1,00.0,0669.5,30.7
2021-05-24T09:18:00Z,00000200,01000000,0001.59,0000.79,0000.22,0000.33,0000.13,0000.13,0000.60,0000.54,0000.44,15.8,22.5,00.1,00.0,0669.5,30.8
2021-05-24T09:19:00Z,00000200,01000000,0001.36,0000.64,0000.35,0000.13,0000.30,0000.20,0000.72,0000.76,0000.31,15.8,22.5,00.1,00.1,0669.5,30.8
2021-05-24T09:20:00Z,00000200,01000000,0001.00,0000.86,0000.27,-000.19,0000.07,0000.16,0000.55,0000.24,0000.76,15.8,22.5,00.1,00.1,0669.5,30.8
2021-05-24T09:21:00Z,00000200,01000000,0000.92,0000.84,0000.31,-000.23,0000.02,0000.18,0000.71,0000.70,0000.32,15.9,22.6,00.1,00.1,0669.5,30.8
2021-05-24T09:22:00Z,00000200,01000000,0001.03,0000.68,0000.19,0000.61,0000.12,-000.03,0000.36,0000.47,0000.34,16.0,22.6,00.1,00.1,0669.5,30.8
2021-05-24T09:23:00Z,00000200,01000000,0001.32,0000.53,0000.22,0000.36,0000.05,0000.18,0000.10,0000.14,0000.04,16.1,22.7,00.1,00.0,0669.6,30.8
2021-05-24T09:24:00Z,00000200,01000000,0001.52,0000.62,0000.15,0000.01,0000.10,0000.20,0000.60,0000.32,0000.24,16.2,22.7,00.0,00.0,0669.6,30.8
2021-05-24T09:25:00Z,00000200,01000000,0001.31,0000.73,0000.34,0000.70,0000.22,0000.17,0000.54,0000.12,0000.34,16.2,22.8,00.1,00.0,0669.6,30.9
2021-05-24T09:26:00Z,00000200,01000000,0002.14,0000.72,0000.16,0000.02,0000.50,-000.07,0000.14,0000.52,0000.54,16.3,22.8,00.0,00.0,0669.6,30.9
2021-05-24T09:27:00Z,00000200,01000000,0001.41,0001.02,0000.28,0000.32,0000.44,0000.09,0000.22,0000.46,-000.60,16.3,22.8,00.1,00.1,0669.6,30.8
2021-05-24T09:28:00Z,00000200,01000000,0001.30,0000.74,0000.41,0000.58,0000.31,0000.13,0000.56,0000.41,0000.62,16.2,22.8,00.1,00.0,0669.6,30.8
2021-05-24T09:29:00Z,00000200,01000000,0000.80,0000.58,0000.40,0000.05,0000.24,0000.18,0000.67,-000.05,0000.20,16.2,22.8,00.1,00.1,0669.6,30.8
2021-05-24T09:30:00Z,00000200,01000000,0001.06,0001.05,0000.59,0000.40,0000.05,0000.09,0000.19,0000.73,0000.14,16.2,22.8,00.1,00.0,0669.6,30.8
2021-05-24T09:31:00Z,00000200,01000000,0001.62,0000.69,0000.56,0000.22,0000.08,0000.13,0000.77,0000.81,0000.41,16.2,22.8,00.0,00.0,0669.6,30.8
2021-05-24T09:32:00Z,00000200,01000000,0001.53,0000.69,0000.32,0000.25,0000.14,0000.08,0000.59,-000.06,0000.57,16.2,22.8,00.0,00.0,0669.6,30.8
2021-05-24T09:33:00Z,00000200,01000000,0001.62,0000.82,0000.38,0000.49,-000.07,-000.25,0000.12,0000.45,0000.38,16.2,22.7,00.0,00.0,0669.6,30.8
2021-05-24T09:34:00Z,00000200,01000000,0002.07,0001.08,0000.43,0000.53,0000.29,0000.28,0000.51,0000.52,0000.21,16.1,22.7,00.0,00.0,0669.6,30.8
2021-05-24T09:35:00Z,00000200,01000000,0001.34,0000.99,0000.53,0000.25,0000.32,0000.11,0000.52,0000.12,0000.20,16.1,22.7,00.0,00.0,0669.6,30.8
2021-05-24T09:36:00Z,00000200,01000000,0001.79,0001.00,0000.53,0000.54,0000.32,0000.33,0000.09,0000.02,0000.35,16.1,22.7,00.0,00.0,0669.6,30.8
2021-05-24T09:37:00Z,00000200,01000000,0001.12,0000.80,0000.20,-000.47,0000.19,0000.20,0000.68,0000.91,0000.25,16.1,22.7,00.0,00.0,0669.6,30.8
2021-05-24T09:38:00Z,00000200,01000000,0000.77,0000.93,0000.54,0000.06,-000.21,0000.24,-000.22,-000.15,-000.23,16.1,22.7,,00.0,0669.6,30.8
2021-05-24T09:39:00Z,00000200,01000000,0001.88,0000.87,0000.52,0000.09,0000.03,0000.20,0001.30,0000.71,0000.61,16.1,22.7,00.0,00.0,0669.6,30.8
2021-05-24T09:40:00Z,00000200,01000000,0001.95,0000.74,0000.33,0000.41,0000.12,0000.17,0000.07,0000.38,0000.11,16.1,22.7,00.0,00.0,0669.7,30.8
2021-05-24T09:41:00Z,00000200,01000000,0001.00,0000.53,0000.38,-000.05,0000.14,0000.18,0000.15,0000.04,0000.46,16.0,22.7,00.0,00.0,0669.7,30.8
2021-05-24T09:42:00Z,00000200,01000000,0001.43,0001.14,0000.54,0000.47,0000.23,0000.08,0000.84,0000.62,-000.10,16.0,22.7,00.0,00.0,0669.7,30.8
2021-05-24T09:43:00Z,00000200,01000000,0001.71,0000.80,0000.32,0000.39,0000.25,0000.01,-000.12,0000.45,0000.60,16.0,22.6,00.0,00.0,0669.7,30.8
2021-05-24T09:44:00Z,00000200,01000000,0001.35,0000.70,0000.24,0000.15,0000.09,0000.22,0000.92,0000.69,0000.41,16.0,22.6,,00.0,0669.7,30.8
2021-05-24T09:45:00Z,00000200,01000000,0001.14,0000.68,0000.37,0000.48,0000.23,0000.24,0000.28,0000.12,-000.02,16.0,22.6,00.0,00.0,0669.7,30.8
2021-05-24T09:46:00Z,00000200,01000000,0001.38,0000.64,0000.41,0000.23,0000.24,0000.22,0000.09,0000.29,0000.14,16.0,22.6,,00.0,0669.7,30.8
2021-05-24T09:47:00Z,00000200,01000000,0001.27,0000.68,0000.39,0000.12,0000.24,0000.05,0000.53,0000.06,0000.25,16.0,22.6,00.0,00.0,0669.7,30.8
2021-05-24T09:48:00Z,00000200,01000000,0001.19,0000.98,0000.34,0000.57,0000.21,0000.27,0000.42,0000.54,0000.57,16.0,22.6,00.0,00.0,0669.7,30.8
2021-05-24T09:49:00Z,00000200,01000000,0001.04,0000.73,0000.33,0000.00,0000.10,0000.20,0000.31,0000.43,-000.01,15.9,22.6,,00.0,0669.7,30.8
2021-05-24T09:50:00Z,00000200,01000000,0001.38,0000.40,0000.10,0000.48,0000.18,-000.16,0000.53,0000.54,0000.62,15.9,22.6,00.0,00.0,0669.7,30.8
2021-05-24T09:51:00Z,00000200,01000000,0000.37,0000.93,0000.19,0000.03,-000.03,0000.08,0000.33,-000.21,0000.05,15.9,22.6,,00.0,0669.7,30.8
2021-05-24T09:52:00Z,00000200,01000000,0001.46,0000.65,0000.23,-000.16,0000.04,-000.21,0000.28,0000.77,0000.20,15.9,22.6,,00.0,0669.7,30.8
2021-05-24T09:53:00Z,00000200,01000000,0001.22,0000.66,0000.39,-000.20,0000.26,0000.11,0000.47,0000.18,0000.27,15.9,22.6,00.0,00.0,0669.7,30.8
2021-05-24T09:54:00Z,00000200,01000000,0001.19,0000.42,0000.49,-000.04,0000.27,0000.23,0000.67,0000.43,0000.45,15.9,22.5,,00.0,0669.7,30.8
2021-05-24T09:55:00Z,00000200,01000000,0001.95,0000.78,0000.23,0000.21,0000.26,-000.11,0000.27,0000.21,0000.20,15.9,22.5,,00.0,0669.7,30.8
2021-05-24T09:56:00Z,00000200,01000000,0001.21,0000.69,0000.35,-000.28,0000.37,-000.10,0000.33,0000.70,0000.02,15.9,22.5,00.0,00.0,0669.7,30.8
2021-05-24T09:57:00Z,00000200,41000000,,,,,,,0000.37,0000.25,0000.74,15.9,22.6,,00.0,0669.7,30.8
2021-05-24T09:58:00Z,00000200,61000000,,,,,,,-000.39,-000.18,-000.62,15.6,22.7,,00.0,0668.7,30.8
2021-05-24T09:59:00Z,00000200,21000000,,,,,,,0000.36,-000.01,0000.22,15.6,22.8,,00.0,0668.7,30.8
